Regional Weather Roundup
Issued by NWS Bismarck, ND

Home | Current Version | Previous Version | Text Only | Print | Product List | Glossary On
Versions: 1 2 3 4 5 6 7 8 9 10 11 12 13 14 15 16 17 18 19 20 21 22 23 24 25 26 27 28 29 30 31 32 33 34 35 36 37 38 39 40 41 42 43 44 45 46 47 48 49 50
434
ASUS43 KBIS 071510
RWRBIS

NWR BROADCAST TEXT
NATIONAL WEATHER SERVICE BISMARCK ND
900 AM CST SUN FEB 07 2016

NOTE: "FAIR" INDICATES FEW OR NO CLOUDS BELOW 12,000 FEET WITH NO
SIGNIFICANT WEATHER AND/OR OBSTRUCTIONS TO VISIBILITY.


CITY           SKY/WX    TMP DP  RH WIND       PRES   REMARKS
WILLISTON      CLOUDY    31  22  69 NW33G44   30.02R WCI  15
MINOT          FLURRIES  31  17  56 NW38G47   29.80R WCI  15
MINOT AFB      NOT AVBL
BISMARCK       CLOUDY    35  23  61 NW25G47   29.82R
DICKINSON      FLURRIES  29  20  69 NW31G47   29.94R WCI  13
GARRISON         N/A     29  21  72 NW43G56   29.80R WCI  11
HETTINGER ARPT CLOUDY    30  19  63 NW36G51   29.98R WCI  14
JAMESTOWN      FLURRIES  33  28  81 NW24G32   29.66R
BEACH          CLOUDY    30  16  55 NW45G53   30.08R WCI  12
CARRINGTON     CLOUDY    32  32 100 NW35G46   29.66R WCI  17
LINTON         LGT SNOW  32  32 100 W29G37    29.81R WCI  18
OAKES          CLOUDY    36  28  75 W22G30    29.70S
TIOGA          FLURRIES  25  23  93 NW41G55   29.95R WCI   5
$$

CITY           SKY/WX    TMP DP  RH WIND       PRES   REMARKS
GRAND FORKS    LGT SNOW  36  30  79 NW18      29.54R
GRAND FORKS AF LGT RAIN  35  31  84 NW15G23   29.55R
DEVILS LAKE    LGT RAIN  33  31  92 NW30      29.60R WCI  19
FARGO          CLOUDY    36  28  73 W24G31    29.60S
GRAFTON        LGT SNOW  32  30  93 N24G30    29.57R WCI  19
GWINNER        PTSUNNY   36  30  80 W23G29    29.68F
ROLLA          CLOUDY    25  19  80 NW33G48   29.67R WCI   7
WALHALLA       FAIR      27  27 100 N30G37    29.61R WCI  10
$$

CITY           SKY/WX    TMP DP  RH WIND       PRES   REMARKS
ABERDEEN       PTSUNNY   37  24  59 W26G32    29.77F
MOBRIDGE       FLURRIES  34  27  75 NW28G43   29.83R
BUFFALO          N/A     33  13  43 NW45G60   29.98R WCI  17
RAPID CITY     CLEAR     35  11  36 NW49G59   30.11S WCI  19
GLASGOW        CLEAR     28  17  63 NW22G32   30.23R WCI  14
SIDNEY         CLOUDY    32  18  55 NW33G45   30.08R WCI  17
WOLF POINT     CLEAR     32  19  58 NW22G30   30.18R WCI  19
GLENDIVE       CLEAR     30  18  59 W41G49    30.11R WCI  13
MILES CITY     CLEAR     32  14  47 NW29G39   30.23R WCI  18
BAKER          CLEAR     31  13  47 NW38G53   30.10R WCI  15
$$

CITY           SKY/WX    TMP DP  RH WIND       PRES   REMARKS
BILLINGS       PTCLDY    27  15  61 NW10      30.38R WCI  17
GREAT FALLS    CLOUDY    21  15  78 SW10      30.42R WCI  10
REGINA         MOCLDY    23  19  86 NW18G28   30.03R WCI   9
ESTEVAN        CLOUDY    23  16  74 NW43G52   29.94R WCI   3
$$





USA.gov is the U.S. government's official web portal to all federal, state and local government web resources and services.